CW0003 Weather Reports


Display with metric or nautical units.
time (UTC)temp
F
wind
direction
speed
MPH
gust
MPH
rain 1hr
in
rain 24hr
in
rain mn
in
humidity
%
barometer
mb
20180919203637 64 71 0.0 0.0 0.00 0.00 0.00 87 1013.6
20180919202134 64 78 0.0 0.0 0.00 0.00 0.00 87 1013.7
20180919200634 65 29 0.0 0.0 0.00 0.00 0.00 91 1013.7
20180919195128 64 30 0.0 0.0 0.00 0.01 0.00 91 1013.5
20180919193627 64 30 0.0 0.0 0.00 0.01 0.00 90 1013.6
20180919192126 64 22 0.0 0.0 0.00 0.01 0.00 89 1013.7
20180919190622 64 76 0.0 0.0 0.00 0.01 0.00 92 1013.6
20180919185122 64 94 0.0 0.0 0.00 0.01 0.00 91 1013.5
20180919183724 63 68 0.0 0.0 0.00 0.01 0.00 92 1013.3
20180919182210 63 360 0.0 0.0 0.00 0.01 0.00 91 1013.4
20180919180706 63 23 0.0 0.0 0.00 0.01 0.00 91 1013.3
20180919175205 63 40 0.0 0.0 0.00 0.05 0.00 94 1013.5
20180919173702 63 103 0.0 0.0 0.00 0.05 0.00 94 1013.7
20180919172159 62 48 0.0 0.0 0.00 0.05 0.00 94 1013.7
20180919170700 62 26 0.0 0.0 0.00 0.05 0.00 95 1013.6
20180919165158 62 355 0.0 0.0 0.00 0.13 0.00 95 1013.6
20180919163652 62 29 0.0 0.0 0.00 0.13 0.00 95 1013.4
20180919162152 62 58 0.0 0.0 0.00 0.13 0.00 95 1013.6
20180919160650 62 21 0.0 0.0 0.00 0.13 0.00 96 1013.5
20180919155146 63 105 0.0 0.0 0.00 0.31 0.00 96 1013.3
20180919153640 63 153 0.0 0.0 0.00 0.31 0.00 96 1013.0
20180919152141 62 30 0.0 0.0 0.00 0.31 0.00 97 1013.1
20180919150639 61 46 0.0 0.0 0.00 0.31 0.00 96 1013.2
20180919145135 62 51 0.0 0.0 0.00 0.80 0.00 97 1013.2
20180919143631 62 68 0.0 0.0 0.00 0.80 0.00 97 1013.2
20180919142130 62 74 0.0 0.0 0.00 0.80 0.00 97 1012.9
20180919140627 62 46 0.0 0.0 0.00 0.80 0.00 97 1012.7
20180919135123 61 37 0.0 0.0 0.00 1.03 0.00 97 1012.5
20180919133618 61 0.0 0.0 0.00 1.03 0.00 97 1012.1
20180919132112 61 0.0 0.0 0.00 1.03 0.00 97 1012.1
20180919130612 61 0.0 0.0 0.00 1.03 0.00 97 1011.7
20180919125106 61 0.0 0.0 0.00 1.03 0.00 97 1011.7
20180919123559 61 0.0 0.0 0.00 1.03 0.00 97 1011.4
20180919122053 61 0.0 0.0 0.00 1.03 0.00 97 1011.2
20180919120543 61 0.0 0.0 0.00 1.03 0.00 97 1011.2
20180919115036 61 0.0 0.0 0.00 1.12 0.00 97 1011.0
20180919113531 61 0.0 0.0 0.00 1.12 0.00 96 1010.8
20180919112024 61 0.0 0.0 0.00 1.12 0.00 96 1010.4
20180919110519 61 0.0 0.0 0.00 1.12 0.00 96 1010.3
20180919105019 61 0.0 0.0 0.00 1.21 0.00 96 1010.3
20180919103506 62 0.0 0.0 0.00 1.21 0.00 96 1010.2
20180919101959 62 0.0 0.0 0.00 1.21 0.00 96 1009.9
20180919100457 62 0.0 0.0 0.00 1.21 0.00 96 1009.8
20180919094946 63 0.0 0.0 0.00 1.24 0.00 96 1009.8
20180919093442 63 0.0 0.0 0.00 1.24 0.00 96 1009.6
20180919091944 64 0.0 0.0 0.00 1.24 0.00 96 1009.3
20180919090429 64 0.0 0.0 0.00 1.24 0.00 97 1009.0
20180919084921 65 0.0 0.0 0.00 1.59 0.00 97 1008.8
20180919083416 65 0.0 0.0 0.00 1.59 0.00 97 1008.6
20180919081912 66 0.0 0.0 0.00 1.59 0.00 97 1008.4
20180919080404 67 0.0 0.0 0.00 1.59 0.00 97 1008.0
20180919074901 68 0.0 0.0 0.00 1.71 0.00 98 1007.8
20180919073354 67 0.0 0.0 0.00 1.71 0.00 98 1007.2
20180919071846 66 0.0 0.0 0.00 1.71 0.00 98 1007.3
20180919070343 64 0.0 0.0 0.00 1.71 0.00 97 1007.2
20180919064839 63 0.0 0.0 0.00 1.78 0.00 96 1007.1
20180919063330 63 0.0 0.0 0.00 1.78 0.00 96 1007.2
20180919061824 63 0.0 0.0 0.00 1.78 0.00 96 1006.8
20180919060317 63 0.0 0.0 0.00 1.78 0.00 96 1006.9
20180919054812 63 0.0 0.0 0.00 1.82 0.00 96 1006.7
20180919053306 63 0.0 0.0 0.00 1.82 0.00 96 1006.7
20180919051801 63 0.0 0.0 0.00 1.82 0.00 96 1006.6
20180919050256 63 0.0 0.0 0.00 1.82 0.00 95 1006.3
20180919044748 63 0.0 0.0 0.00 1.83 0.00 96 1006.2
20180919043245 63 0.0 0.0 0.00 1.83 0.00 95 1006.3
20180919041736 63 0.0 0.0 0.00 1.83 0.00 95 1006.3
20180919040236 64 0.0 0.0 0.00 1.83 0.00 95 1006.4
20180919034727 64 0.0 0.0 0.00 1.83 1.83 95 1006.4
20180919033227 64 0.0 0.0 0.00 1.83 1.83 95 1006.5
20180919031725 64 0.0 0.0 0.00 1.83 1.83 95 1006.4
20180919030319 64 0.0 0.0 0.00 1.83 1.83 95 1006.2
20180919024720 64 0.0 0.0 0.00 1.83 1.83 95 1006.1
20180919023217 65 0.0 0.0 0.00 1.83 1.83 95 1006.2
20180919021714 65 0.0 0.0 0.00 1.83 1.83 95 1006.0
20180919020210 65 0.0 0.0 0.00 1.83 1.83 95 1005.9
20180919014704 65 0.0 0.0 0.00 1.83 1.83 94 1005.9
20180919013205 66 0.0 0.0 0.00 1.83 1.83 94 1005.9
20180919011659 66 0.0 0.0 0.00 1.83 1.83 94 1005.9
20180919010156 67 0.0 0.0 0.00 1.83 1.83 94 1005.8
20180919004654 67 0.0 0.0 0.00 1.83 1.83 94 1005.9
20180919003152 67 339 0.0 0.0 0.00 1.83 1.83 94 1006.0
20180919001737 68 339 0.0 0.0 0.00 1.83 1.83 94 1005.8
20180919000143 68 339 0.0 0.0 0.00 1.83 1.83 94 1005.7
20180918234653 69 339 0.0 0.0 0.00 1.83 1.83 94 1005.7
20180918233139 69 339 0.0 0.0 0.00 1.83 1.83 94 1005.7
20180918231704 70 339 0.0 0.0 0.00 1.83 1.83 95 1005.6
20180918230135 71 339 0.0 0.0 0.00 1.83 1.83 95 1005.4
20180918224702 71 339 0.0 0.0 0.00 1.83 1.83 96 1005.4
20180918223149 71 339 0.0 0.0 0.00 1.83 1.83 96 1005.3
20180918221630 72 339 0.0 0.0 0.00 1.83 1.83 96 1005.2
20180918220126 72 339 0.0 0.0 0.00 1.83 1.83 97 1005.2
20180918214657 72 340 0.0 0.0 0.00 1.83 1.83 97 1005.1
20180918213151 73 341 0.0 0.0 0.00 1.83 1.83 97 1005.2
20180918211805 74 341 0.0 0.0 0.00 1.83 1.83 98 1005.2
20180918204704 73 342 0.0 0.0 0.00 1.83 1.83 98 1005.8